CW2125 Weather Reports


Display with metric or nautical units.
time (UTC)temp
F
wind
direction
speed
MPH
gust
MPH
rain 1hr
in
rain 24hr
in
rain mn
in
humidity
%
barometer
mb
20260509011604 52 238 0.0 3.0 0.00 0.00 0.00 46 1006.2
20260509010053 57 239 2.0 3.0 0.00 0.00 0.00 35 1006.1
20260509004549 59 239 3.0 5.0 0.00 0.00 0.00 30 1006.1
20260509003044 60 248 4.0 9.0 0.00 0.00 0.00 28 1006.0
20260509001541 61 266 5.0 8.0 0.00 0.00 0.00 28 1006.0
20260509000035 60 253 5.0 9.0 0.00 0.00 0.00 28 1006.0
20260508234532 61 245 4.0 10.0 0.00 0.00 0.00 28 1005.9
20260508233026 63 246 6.0 12.0 0.00 0.00 0.00 25 1005.8
20260508231522 63 263 8.0 14.0 0.00 0.00 0.00 24 1005.8
20260508230017 64 259 7.0 11.0 0.00 0.00 0.00 25 1005.7
20260508224515 64 277 11.0 16.0 0.00 0.00 0.00 23 1005.8
20260508223019 64 264 7.0 13.0 0.00 0.00 0.00 26 1005.8
20260508221504 64 283 11.0 17.0 0.00 0.00 0.00 24 1005.9
20260508220103 64 244 8.0 17.0 0.00 0.00 0.00 24 1005.9
20260508214636 64 296 14.0 19.0 0.00 0.00 0.00 24 1005.9
20260508213052 64 284 12.0 18.0 0.00 0.00 0.00 24 1006.1
20260508211547 64 276 7.0 14.0 0.00 0.00 0.00 25 1006.2
20260508210042 64 229 7.0 14.0 0.00 0.00 0.00 27 1006.2
20260508204538 63 277 9.0 18.0 0.00 0.00 0.00 28 1006.5
20260508203033 63 259 6.0 15.0 0.00 0.00 0.00 28 1006.7
20260508201529 63 205 7.0 17.0 0.00 0.00 0.00 28 1007.0
20260508200027 62 226 9.0 16.0 0.00 0.00 0.00 28 1007.2
20260508194520 63 265 11.0 16.0 0.00 0.00 0.00 29 1007.5
20260508193016 62 232 9.0 16.0 0.00 0.00 0.00 29 1007.6
20260508191529 61 237 7.0 13.0 0.00 0.00 0.00 30 1008.0
20260508190008 62 234 8.0 15.0 0.00 0.00 0.00 31 1008.2
20260508184503 60 208 4.0 9.0 0.00 0.00 0.00 31 1008.4
20260508183105 61 223 11.0 16.0 0.00 0.00 0.00 30 1008.6
20260508181555 60 229 9.0 17.0 0.00 0.00 0.00 30 1008.8
20260508180058 60 277 10.0 14.0 0.00 0.00 0.00 32 1008.9
20260508174548 60 230 8.0 16.0 0.00 0.00 0.00 33 1009.2
20260508173040 60 223 5.0 15.0 0.00 0.00 0.00 30 1009.5
20260508171538 59 234 6.0 13.0 0.00 0.00 0.00 30 1009.6
20260508170032 59 196 7.0 15.0 0.00 0.00 0.00 31 1009.8
20260508164530 59 283 2.0 14.0 0.00 0.00 0.00 32 1010.1
20260508163023 58 184 7.0 13.0 0.00 0.00 0.00 33 1010.1
20260508161518 58 236 8.0 13.0 0.00 0.00 0.00 33 1010.4
20260508160017 57 222 8.0 14.0 0.00 0.00 0.00 34 1010.4
20260508154510 56 240 7.0 12.0 0.00 0.00 0.00 35 1010.6
20260508153005 56 270 5.0 10.0 0.00 0.00 0.00 37 1010.5
20260508151503 55 234 5.0 9.0 0.00 0.00 0.00 40 1010.6
20260508150057 55 200 6.0 12.0 0.00 0.00 0.00 40 1010.7
20260508144555 54 229 6.0 12.0 0.00 0.00 0.00 43 1011.0
20260508143053 54 173 4.0 10.0 0.00 0.00 0.00 47 1011.0
20260508141544 53 203 5.0 11.0 0.00 0.00 0.00 50 1011.1
20260508140040 52 217 6.0 9.0 0.00 0.00 0.00 54 1011.1
20260508134536 51 182 6.0 10.0 0.00 0.00 0.00 57 1011.3
20260508133030 50 181 5.0 9.0 0.00 0.00 0.00 59 1011.4
20260508131525 49 195 5.0 7.0 0.00 0.00 0.00 61 1011.5
20260508130022 48 167 5.0 7.0 0.00 0.00 0.00 65 1011.5
20260508124516 47 166 5.0 8.0 0.00 0.00 0.00 67 1011.5
20260508123012 45 190 5.0 7.0 0.00 0.00 0.00 61 1011.5
20260508121508 44 169 3.0 6.0 0.00 0.00 0.00 42 1011.3
20260508120007 42 142 3.0 5.0 0.00 0.00 0.00 15 1011.4
20260508114609 41 123 2.0 4.0 0.00 0.00 0.00 100 1011.0
20260508113103 38 76 0.0 0.0 0.00 0.00 0.00 100 1011.0
20260508111601 36 75 0.0 1.0 0.00 0.00 0.00 100 1010.8
20260508110045 34 75 0.0 1.0 0.00 0.00 0.00 100 1010.8
20260508104542 34 75 0.0 0.0 0.00 0.00 0.00 100 1010.8
20260508103038 34 101 0.0 0.0 0.00 0.00 0.00 100 1010.8
20260508101532 34 98 0.0 0.0 0.00 0.00 0.00 100 1010.8
20260508100030 34 98 0.0 2.0 0.00 0.00 0.00 3 1010.8
20260508094523 34 98 0.0 2.0 0.00 0.00 0.00 100 1010.8
20260508093019 35 98 0.0 0.0 0.00 0.00 0.00 7 1010.8
20260508091514 36 98 0.0 0.0 0.00 0.00 0.00 3 1010.9
20260508090010 37 98 0.0 0.0 0.00 0.00 0.00 100 1011.0
20260508084506 36 98 0.0 0.0 0.00 0.00 0.00 6 1011.0
20260508083001 36 98 0.0 2.0 0.00 0.00 0.00 16 1011.0
20260508081605 37 98 1.0 3.0 0.00 0.00 0.00 8 1011.1
20260508080100 37 98 0.0 0.0 0.00 0.00 0.00 34 1011.1
20260508074549 39 98 0.0 0.0 0.00 0.00 0.00 33 1011.1
20260508073049 40 98 0.0 0.0 0.00 0.00 0.00 35 1011.1
20260508071541 41 98 0.0 0.0 0.00 0.00 0.00 35 1011.1
20260508070039 41 98 0.0 0.0 0.00 0.00 0.00 37 1011.1
20260508064539 42 98 0.0 0.0 0.00 0.00 0.00 43 1011.1
20260508063035 43 98 2.0 3.0 0.00 0.00 0.00 45 1011.2
20260508061533 43 98 0.0 3.0 0.00 0.00 0.00 46 1011.3
20260508060032 43 84 1.0 3.0 0.00 0.00 0.00 34 1011.3
20260508054531 43 62 2.0 3.0 0.00 0.00 0.00 37 1011.4
20260508053032 43 61 0.0 0.0 0.00 0.00 0.00 37 1011.6
20260508051534 43 61 0.0 2.0 0.00 0.00 0.00 37 1011.5
20260508050031 43 61 0.0 0.0 0.00 0.00 0.00 37 1011.5
20260508044525 43 61 0.0 0.0 0.00 0.00 0.00 46 1011.4
20260508043023 43 61 0.0 0.0 0.00 0.00 0.00 52 1011.3
20260508041520 44 61 0.0 0.0 0.00 0.00 0.00 51 1011.3
20260508040018 44 61 0.0 0.0 0.00 0.00 0.00 53 1011.4
20260508034515 44 30 0.0 2.0 0.00 0.00 0.00 51 1011.4
20260508033010 44 28 0.0 0.0 0.00 0.00 0.00 60 1011.3
20260508031505 44 28 0.0 0.0 0.00 0.00 0.00 63 1011.4
20260508030002 44 28 0.0 0.0 0.00 0.00 0.00 65 1011.4
20260508024605 44 28 0.0 0.0 0.00 0.00 0.00 68 1011.4
20260508023055 45 28 0.0 0.0 0.00 0.00 0.00 68 1011.3
20260508021548 45 28 0.0 1.0 0.00 0.00 0.00 64 1011.2
20260508020044 46 26 0.0 3.0 0.00 0.00 0.00 63 1011.0
20260508014540 46 25 1.0 5.0 0.00 0.00 0.00 62 1011.0
20260508013037 47 19 4.0 10.0 0.00 0.00 0.00 59 1010.8